[[{"header":{"parameterUnit":"m.s-1","parameterCategory":1,"la1":30.2991,"la2":30.254,"lo1":-89.0895,"lo2":-89.0444,"dy":0.0017,"dx":0.0017,"nx":28,"ny":28,"refTime":"2023-10-20T21:00:00:Z","depth":0,"parameterNumber":2,"parameterNumberName":"U-component_of_WINDS"},"data":[0,0,0,0,0,0,0,0,0,0,0,0,0,0,0,0,0,0,0,0,0,0,0,0,0,0,0,0,0,0,0,0,0,0,0,0,0,0,0,0,0,0,0,0,0,0,0,0,0,0,0,0,0,0,0,0,0,0,-2.297,-2.2969,0,-2.287,-2.2869,-2.2868,-2.2736,-2.2734,-2.2732,-2.2729,-2.263,-2.2629,-2.2629,0,0,0,0,0,0,0,0,0,0,0,0,0,-2.3046,-2.3045,-2.297,-2.2969,-2.2968,-2.2871,-2.2869,-2.2868,-2.2736,-2.2734,-2.2731,-2.2728,-2.263,-2.2629,-2.2629,0,0,0,0,0,0,0,0,0,0,0,0,0,-2.2987,-2.3045,-2.297,-2.289,-2.2882,-2.2871,-2.2869,-2.2868,-2.2737,-2.2734,-2.273,-2.2727,-2.263,-2.2629,-2.2629,-2.2689,0,0,-2.2626,-2.2625,0,0,0,0,0,0,0,0,-2.299,-2.2984,-2.2903,-2.2896,-2.2886,-2.2812,-2.2859,-2.2808,-2.2738,-2.2792,-2.2729,-2.2726,-2.2693,-2.2687,-2.2676,-2.2684,-2.268,-2.2626,-2.2625,-2.2625,-2.2625,0,0,0,0,0,0,0,-2.2994,-2.2987,-2.2931,-2.2902,-2.2892,-2.2859,-2.2847,-2.2849,-2.2763,-2.2787,-2.2777,-2.2767,-2.2688,-2.2677,-2.2672,-2.2678,-2.2626,-2.2625,-2.2624,-2.2624,-2.2729,-2.2732,0,0,0,0,0,0,-2.301,-2.2992,-2.2934,-2.2928,-2.2931,-2.286,-2.2847,-2.2839,-2.2762,-2.2747,-2.277,-2.2761,-2.268,-2.2674,-2.2668,-2.2733,-2.2625,-2.2624,-2.2623,-2.2725,-2.2729,-2.2733,0,0,0,0,0,0,-2.3012,-2.3006,-2.2938,-2.2957,-2.2946,-2.2863,-2.2855,-2.2839,-2.2828,-2.2749,-2.2733,-2.2775,-2.2677,-2.267,-2.2684,-2.2728,-2.2624,-2.2623,-2.2721,-2.2727,-2.2731,-2.2864,0,0,0,0,0,0,-2.3015,-2.3008,-2.3031,-2.2958,-2.2945,-2.2956,-2.2858,-2.284,-2.2826,-2.2814,-2.2749,-2.2735,-2.2674,-2.2686,-2.2683,-2.2725,-2.2622,-2.2717,-2.2724,-2.273,-2.2855,-2.2873,-2.2888,0,0,0,0,0,-2.3018,-2.3073,-2.3032,-2.3026,-2.2972,-2.2959,-2.2951,-2.2879,-2.283,-2.2852,-2.2801,-2.2737,-2.2723,-2.2689,-2.2684,-2.2726,-2.2714,-2.2722,-2.2729,-2.2848,-2.2869,-2.2887,0,0,0,0,0,0,-2.3154,-2.3062,-2.3016,-2.3049,-2.3012,-2.2936,-2.2962,-2.2904,-2.2882,-2.2871,-2.2783,-2.2769,-2.2795,-2.2761,-2.2725,-2.2779,-2.2709,-2.2716,-2.2801,-2.282,-2.2836,-2.2845,-2.2621,0,0,0,0,0,-2.3187,-2.3184,-2.3104,-2.3141,-2.3124,-2.3047,-2.3038,-2.2985,-2.2945,-2.2929,-2.2879,-2.2842,-2.2828,-2.2822,-2.2806,-2.2848,-2.2832,-2.2875,-2.2891,-2.2905,-2.2913,-2.2932,-2.295,-2.2758,-2.2758,-2.2757,0,0,-2.3257,-2.3206,-2.321,-2.3167,-2.3132,-2.3131,-2.3035,-2.3038,-2.3036,-2.2929,-2.294,-2.2902,-2.2854,-2.2883,-2.2893,-2.2856,-2.2961,-2.2914,-2.2926,-2.2926,-2.2941,-2.296,-2.2976,-2.2763,-2.2762,-2.2761,0,0,-2.3384,-2.3345,-2.3371,-2.3337,-2.3286,-2.3233,-2.3239,-2.3171,-2.3141,-2.3149,-2.3068,-2.3064,-2.3044,-2.3013,-2.2995,-2.3106,-2.3046,-2.3102,-2.3189,-2.3208,-2.3223,-2.3236,-2.3276,-2.3292,-2.311,-2.311,-2.3111,0,-2.3478,-2.3473,-2.3392,-2.3399,-2.3382,-2.3283,-2.3308,-2.3279,-2.3226,-2.3216,-2.3174,-2.3145,-2.3106,-2.3125,-2.3152,-2.314,-2.3144,-2.3111,-2.3228,-2.324,-2.3251,-2.3288,-2.3303,-2.3118,-2.3117,-2.3116,-2.3115,0,-2.3591,-2.3588,-2.3615,-2.3564,-2.3549,-2.3566,-2.3487,-2.3481,-2.3428,-2.338,-2.3389,-2.3338,-2.3309,-2.3309,-2.3258,-2.332,-2.3299,-2.3244,-2.3172,-2.3278,-2.3311,-2.3325,-2.3128,-2.3125,-2.3123,-2.3121,0,0,-2.3805,-2.3705,-2.3717,-2.3692,-2.3625,-2.3622,-2.3632,-2.3602,-2.36,-2.3565,-2.3572,-2.3554,-2.3502,-2.3481,-2.3425,-2.3442,-2.3533,-2.3384,-2.3382,-2.3415,-2.3598,-2.3642,-2.366,-2.3491,-2.3494,-2.3496,-2.3602,0,-2.392,-2.3934,-2.3859,-2.3893,-2.3889,-2.3792,-2.3801,-2.3761,-2.3715,-2.3705,-2.3653,-2.3643,-2.3574,-2.356,-2.3572,-2.352,-2.3569,-2.351,-2.3498,-2.3499,-2.3516,-2.3677,-2.3724,-2.3828,-2.3615,-2.3617,-2.3619,0,-2.4058,-2.4029,-2.4062,-2.3992,-2.3987,-2.3997,-2.3962,-2.3953,-2.3905,-2.387,-2.3845,-2.378,-2.3784,-2.3714,-2.3719,-2.3681,-2.367,-2.3643,-2.3645,-2.3644,-2.3567,-2.3682,-2.3859,-2.3875,-2.3638,-2.3637,-2.3635,0,-2.4213,-2.4181,-2.4196,-2.4177,-2.4096,-2.4105,-2.4071,-2.4019,-2.4005,-2.3974,-2.3964,-2.3934,-2.3919,-2.3897,-2.3825,-2.378,-2.3839,-2.3762,-2.381,-2.3813,-2.383,-2.3831,-2.401,-2.382,-2.382,-2.382,-2.3819,0,-2.4351,-2.4376,-2.4264,-2.4274,-2.4298,-2.421,-2.4236,-2.4192,-2.4146,-2.4145,-2.4059,-2.406,-2.3963,-2.3953,-2.3896,-2.3909,-2.3903,-2.3875,-2.386,-2.3884,-2.3888,-2.3878,-2.387,-2.3824,-2.3823,-2.3822,-2.3821,0,-2.453,-2.4456,-2.4466,-2.4386,-2.4366,-2.4388,-2.4319,-2.4324,-2.427,-2.427,-2.4265,-2.4181,-2.4164,-2.4089,-2.4055,-2.4016,-2.4049,-2.4018,-2.4066,-2.4057,-2.411,-2.4106,-2.4292,-2.4312,-2.4107,-2.4109,-2.4111,0,-2.4625,-2.4641,-2.4562,-2.4554,-2.4524,-2.4513,-2.4498,-2.4411,-2.4398,-2.4342,-2.4354,-2.433,-2.4307,-2.4284,-2.422,-2.4193,-2.4162,-2.4228,-2.4157,-2.418,-2.4164,-2.4165,-2.4166,-2.4245,-2.4247,-2.425,-2.4251,0,-2.4801,-2.4763,-2.4744,-2.4711,-2.4695,-2.4665,-2.463,-2.4629,-2.4532,-2.4522,-2.4503,-2.4484,-2.4447,-2.4425,-2.4386,-2.435,-2.4286,-2.4273,-2.4283,-2.431,-2.4337,-2.4324,-2.411,-2.4271,-2.4269,-2.4267,-2.4266,-2.4265,-2.4942,-2.4951,-2.4896,-2.4877,-2.4841,-2.4809,-2.481,-2.4755,-2.4737,-2.47,-2.4649,-2.4637,-2.4585,-2.4526,-2.4495,-2.4483,-2.4447,-2.4461,-2.4465,-2.4471,-2.4483,-2.4336,-2.4475,-2.4475,-2.4474,-2.4474,-2.4473,0,-2.5115,-2.5074,-2.5057,-2.501,-2.4994,-2.4931,-2.4888,-2.488,-2.487,-2.4826,-2.4803,-2.4781,-2.4757,-2.4689,-2.4659,-2.4662,-2.4632,-2.4658,-2.4658,-2.4651,-2.4517,-2.4512,-2.4683,-2.4683,-2.4683,-2.4683,-2.4683,-2.4683,-2.5204,-2.5216,-2.5171,-2.5163,-2.5121,-2.5108,-2.5089,-2.5059,-2.5023,-2.5002,-2.4981,-2.4936,-2.4882,-2.4846,-2.4821,-2.4802,-2.4795,-2.4832,-2.4803,-2.468,-2.466,-2.4641,-2.4636,-2.483,-2.4831,-2.4937,-2.4938,-2.4939]},{"header":{"parameterUnit":"m.s-1","parameterCategory":1,"la1":30.2991,"la2":30.254,"lo1":-89.0895,"lo2":-89.0444,"dy":0.0017,"dx":0.0017,"nx":28,"ny":28,"refTime":"2023-10-20T21:00:00:Z","depth":0,"parameterNumber":3,"parameterNumberName":"V-component_of_WINDS"},"data":[0,0,0,0,0,0,0,0,0,0,0,0,0,0,0,0,0,0,0,0,0,0,0,0,0,0,0,0,0,0,0,0,0,0,0,0,0,0,0,0,0,0,0,0,0,0,0,0,0,0,0,0,0,0,0,0,0,0,-2.4417,-2.4416,0,-2.4385,-2.4385,-2.4384,-2.4319,-2.4317,-2.4316,-2.4315,-2.4283,-2.4284,-2.4284,0,0,0,0,0,0,0,0,0,0,0,0,0,-2.4421,-2.4421,-2.4417,-2.4416,-2.4416,-2.4385,-2.4385,-2.4384,-2.4319,-2.4317,-2.4316,-2.4314,-2.4283,-2.4284,-2.4284,0,0,0,0,0,0,0,0,0,0,0,0,0,-2.4407,-2.4421,-2.4417,-2.4379,-2.4376,-2.4385,-2.4385,-2.4384,-2.4319,-2.4317,-2.4315,-2.4313,-2.4283,-2.4284,-2.4284,-2.4328,0,0,-2.4286,-2.4286,0,0,0,0,0,0,0,0,-2.4408,-2.4407,-2.4385,-2.4382,-2.4378,-2.4354,-2.4375,-2.4365,-2.432,-2.4341,-2.4315,-2.4312,-2.4309,-2.4307,-2.4305,-2.4326,-2.4325,-2.4286,-2.4287,-2.4287,-2.4287,0,0,0,0,0,0,0,-2.4409,-2.4408,-2.4404,-2.4385,-2.4381,-2.4364,-2.436,-2.4373,-2.4336,-2.4339,-2.4334,-2.4331,-2.4306,-2.4305,-2.4304,-2.4325,-2.4286,-2.4287,-2.4287,-2.4287,-2.4379,-2.4381,0,0,0,0,0,0,-2.4415,-2.4409,-2.4405,-2.4403,-2.4388,-2.4366,-2.4361,-2.4364,-2.4336,-2.433,-2.4333,-2.4328,-2.4305,-2.4304,-2.4303,-2.4351,-2.4287,-2.4287,-2.4288,-2.4377,-2.4379,-2.4381,0,0,0,0,0,0,-2.4416,-2.4415,-2.4406,-2.4405,-2.4402,-2.4368,-2.4371,-2.4364,-2.4363,-2.4331,-2.4325,-2.4338,-2.4303,-2.4302,-2.4322,-2.4349,-2.4288,-2.4288,-2.4374,-2.4377,-2.438,-2.4448,0,0,0,0,0,0,-2.4416,-2.4416,-2.4432,-2.4406,-2.4403,-2.4426,-2.4373,-2.4365,-2.4364,-2.4357,-2.4335,-2.4329,-2.4302,-2.4321,-2.4322,-2.4349,-2.4289,-2.4371,-2.4375,-2.4379,-2.4444,-2.4453,-2.4462,0,0,0,0,0,-2.4416,-2.4453,-2.4433,-2.4433,-2.4422,-2.4428,-2.4426,-2.4394,-2.4366,-2.4382,-2.4362,-2.433,-2.4346,-2.4324,-2.4325,-2.4352,-2.437,-2.4374,-2.4379,-2.4439,-2.4452,-2.4462,0,0,0,0,0,0,-2.4484,-2.4449,-2.4427,-2.4456,-2.4445,-2.4417,-2.4436,-2.4408,-2.4405,-2.4399,-2.4359,-2.4354,-2.438,-2.4368,-2.4343,-2.4392,-2.4353,-2.4358,-2.4398,-2.441,-2.4419,-2.4421,-2.4289,0,0,0,0,0,-2.4502,-2.4509,-2.4478,-2.4507,-2.4503,-2.4471,-2.4472,-2.4448,-2.4435,-2.443,-2.4411,-2.4401,-2.4403,-2.4406,-2.4407,-2.4442,-2.4435,-2.4461,-2.447,-2.4477,-2.4482,-2.4499,-2.4509,-2.4396,-2.4396,-2.4396,0,0,-2.454,-2.4522,-2.4529,-2.452,-2.4509,-2.4518,-2.4467,-2.4478,-2.4484,-2.4432,-2.4449,-2.4435,-2.4421,-2.4448,-2.4459,-2.4439,-2.4512,-2.4483,-2.449,-2.449,-2.4505,-2.4515,-2.4525,-2.44,-2.4399,-2.4399,0,0,-2.4613,-2.46,-2.4622,-2.4612,-2.4596,-2.4574,-2.4579,-2.4555,-2.4543,-2.456,-2.4521,-2.4527,-2.4533,-2.4524,-2.452,-2.4589,-2.4559,-2.4591,-2.4638,-2.4655,-2.4664,-2.4672,-2.4696,-2.4705,-2.4595,-2.4596,-2.4596,0,-2.4662,-2.4673,-2.4637,-2.4651,-2.4648,-2.4601,-2.4623,-2.4615,-2.46,-2.4599,-2.4576,-2.4582,-2.4569,-2.4593,-2.461,-2.4609,-2.4613,-2.4593,-2.4666,-2.4673,-2.468,-2.4702,-2.4711,-2.4599,-2.4599,-2.4599,-2.4598,0,-2.4734,-2.4742,-2.4762,-2.4748,-2.4747,-2.4765,-2.4732,-2.4736,-2.4712,-2.4692,-2.471,-2.4692,-2.4688,-2.4692,-2.4669,-2.4713,-2.4701,-2.4673,-2.4633,-2.4695,-2.4715,-2.4723,-2.4605,-2.4604,-2.4602,-2.4602,0,0,-2.4848,-2.4814,-2.4822,-2.4814,-2.4793,-2.4798,-2.4814,-2.481,-2.4813,-2.4805,-2.4816,-2.4822,-2.4795,-2.4791,-2.4767,-2.4782,-2.4837,-2.4751,-2.475,-2.4767,-2.4883,-2.4904,-2.4914,-2.4817,-2.4818,-2.482,-2.4884,0,-2.4915,-2.4939,-2.4908,-2.4939,-2.4945,-2.4901,-2.4914,-2.4903,-2.4885,-2.4888,-2.4868,-2.4873,-2.4838,-2.4835,-2.4848,-2.4827,-2.4859,-2.4822,-2.4827,-2.4828,-2.4831,-2.4925,-2.4947,-2.5009,-2.4892,-2.4893,-2.4894,0,-2.4997,-2.4991,-2.5023,-2.4999,-2.5001,-2.5013,-2.5006,-2.501,-2.4996,-2.4982,-2.4977,-2.4948,-2.4961,-2.4923,-2.494,-2.4916,-2.4916,-2.4906,-2.4908,-2.4906,-2.4864,-2.4926,-2.5028,-2.5037,-2.4906,-2.4905,-2.4904,0,-2.5076,-2.5077,-2.5095,-2.5091,-2.5063,-2.5073,-2.5062,-2.5046,-2.5045,-2.504,-2.5038,-2.5035,-2.5033,-2.503,-2.5,-2.4975,-2.5022,-2.4981,-2.501,-2.5011,-2.5021,-2.5021,-2.5124,-2.5023,-2.5023,-2.5023,-2.5022,0,-2.5154,-2.5175,-2.513,-2.5142,-2.5164,-2.5128,-2.515,-2.5135,-2.5121,-2.5129,-2.509,-2.5098,-2.5059,-2.5063,-2.504,-2.5057,-2.5057,-2.5046,-2.5039,-2.5049,-2.505,-2.5048,-2.5043,-2.5025,-2.5024,-2.5024,-2.5024,0,-2.5246,-2.5217,-2.5234,-2.5207,-2.52,-2.5218,-2.5194,-2.5203,-2.5183,-2.5193,-2.5194,-2.5162,-2.5165,-2.5135,-2.5132,-2.5116,-2.5144,-2.5131,-2.5149,-2.5144,-2.5175,-2.5172,-2.5279,-2.5291,-2.5184,-2.5185,-2.5186,0,-2.5297,-2.5312,-2.5286,-2.5288,-2.5279,-2.5283,-2.5282,-2.5247,-2.5247,-2.5232,-2.5243,-2.5242,-2.524,-2.5246,-2.5223,-2.522,-2.5205,-2.5243,-2.5205,-2.5214,-2.5205,-2.5204,-2.5205,-2.5251,-2.5253,-2.5254,-2.5255,0,-2.539,-2.5375,-2.5375,-2.537,-2.5369,-2.5363,-2.5355,-2.5359,-2.5321,-2.5323,-2.5325,-2.5323,-2.532,-2.5319,-2.5312,-2.5301,-2.5272,-2.5267,-2.5273,-2.5283,-2.5292,-2.5287,-2.517,-2.5264,-2.5263,-2.5263,-2.5262,-2.5262,-2.5462,-2.5473,-2.5457,-2.5457,-2.5447,-2.5441,-2.5448,-2.5428,-2.5429,-2.5423,-2.5403,-2.5408,-2.5393,-2.538,-2.5372,-2.5375,-2.5357,-2.5366,-2.5369,-2.5371,-2.5377,-2.5293,-2.5374,-2.5374,-2.5373,-2.5373,-2.5373,0,-2.5553,-2.554,-2.5541,-2.5531,-2.5531,-2.5503,-2.5493,-2.5495,-2.55,-2.5489,-2.5487,-2.5489,-2.5488,-2.5465,-2.5462,-2.5469,-2.5455,-2.5469,-2.5468,-2.5466,-2.5394,-2.5388,-2.548,-2.548,-2.548,-2.548,-2.548,-2.548,-2.56,-2.5617,-2.56,-2.5611,-2.5598,-2.5603,-2.5599,-2.5593,-2.5583,-2.5587,-2.5586,-2.5571,-2.5554,-2.5549,-2.5548,-2.5541,-2.5541,-2.5559,-2.5548,-2.5481,-2.5471,-2.5461,-2.5455,-2.556,-2.556,-2.5619,-2.562,-2.562]}]]